{"data":{"norad_id":52695,"intl_designator":"2022-053AR","name":"STARLINK-4041","alt_names":[],"object_type":"PAYLOAD","status":"ACTIVE","operator":null,"country":"US","launch_date":"2022-05-18","launch_site_code":"AFETR","launch_vehicle":null,"mission":null,"orbit_class":"UNKNOWN","rcs_meters":null,"size_class":null,"mass_kg":null,"dimensions":null,"purposes":["comms"],"wikipedia_slug":null,"has_3d_model":false,"image_url":null,"decayed_at":null,"tle_current":{"epoch":"2026-09-19T18:33:27.329472Z","epoch_age_seconds":129278,"freshness":"FRESH","line1":"1 52695U 22053AR  26262.77323298  .00000112  00000+0  25130-4 0  9996","line2":"2 52695  53.1629 356.9852 0001251  85.7418 274.3716 15.08836908240391","mean_motion":15.08836908,"eccentricity":0.0001251,"inclination_deg":53.1629,"raan_deg":356.9852,"arg_perigee_deg":85.7418,"mean_anomaly_deg":274.3716,"bstar":2.513e-5,"rev_number":24039,"period_min":95.437750254185,"perigee_km":538.88741196829,"apogee_km":540.61826800625,"semimajor_km":6917.8898399873,"source":"CELESTRAK","updated_at":"2026-09-20T09:00:40.107548Z"}}}